Location: Hermaringen
(48.5952°N, 10.2585°E)
Time: 07:08:03
(UTC+00:00)

SMAP - Pass Details

Date: 18 November 2025
Orbit: 681 x 683 km, 98.1° (Epoch: 06 December)

Event Time Altitude Azimuth Distance (km) Brightness Sun altitude
Rises 16:34:17 0° 164° (SSE) 3,033 6.4 -9.7°
Reaches altitude 10° 16:36:30 10° 164° (SSE) 2,122 5.6 -10.0°
Maximum altitude 16:41:10 90° 247° (WSW) 690 3.1 -10.7°
Drops below altitude 10° 16:45:51 10° 346° (NNW) 2,138 5.6 -11.5°
Sets 16:48:06 0° 347° (NNW) 3,058 6.4 -11.8°
